Voltar ao catálogo

SL-14 R/B

AtivoLEO
NORAD 23412·ROCKET BODY·🇷🇺 Russia

Lançado Nov 29, 1994 de Plesetsk Cosmodrome

Loading…

Próximas Passagens (próximas 24 horas)

TLE

AtualizadoSource: Space-Track

Época: Sep 14, 2026, 21:49 UTC

1 23412U 94078B   26257.90969774 -.00000026  00000-0 -66794-4 0  9999
2 23412  73.6174  39.1347 0043473 175.1022   1.4217 12.41009468440501

Acompanhe SL-14 R/B em tempo real com AllMySat

Download on the App Store